• MPC Preparation (Info)

  • MPEC 2005-L22 : 2005 LV3

    The following Minor Planet Electronic Circular may be linked-to from your own Web pages, but must not otherwise be redistributed electronically.

    A form allowing access to any MPEC is at the bottom of this page.


    Read MPEC 2005-L21 Read MPEC 2005-L23


    M.P.E.C. 2005-L22                                Issued 2005 June 6, 12:16 UT
    
         The Minor Planet Electronic Circulars contain information on unusual
             minor planets and routine data on comets.  They are published
       on behalf of Commission 20 of the International Astronomical Union by the
              Minor Planet Center, Smithsonian Astrophysical Observatory,
                              Cambridge, MA 02138, U.S.A.
    
                      Supported in part by the Brinson Foundation
                 Prepared using the Tamkin Foundation Computer Network
    
                                  MPC@CFA.HARVARD.EDU
              URL http://cfa-www.harvard.edu/iau/mpc.html  ISSN 1523-6714
    
                                       2005 LV3
    
    Observations:
         K05L03V* C2005 06 05.39743 20 22 23.68 -11 42 44.8          19.2   EL022704
         K05L03V  C2005 06 05.40777 20 22 24.95 -11 42 24.1          19.5   EL022704
         K05L03V  C2005 06 05.41809 20 22 26.04 -11 42 01.6          19.4   EL022704
         K05L03V  C2005 06 06.29658 20 24 14.71 -11 11 42.3          19.1 R EL022649
         K05L03V  C2005 06 06.29836 20 24 14.86 -11 11 38.7          18.9 R EL022649
         K05L03V  C2005 06 06.30013 20 24 15.09 -11 11 34.3          19.3 R EL022649
         K05L03V  C2005 06 06.30818 20 24 16.42 -11 11 13.9          18.9 R EL022854
         K05L03V  C2005 06 06.31393 20 24 17.13 -11 11 03.2          19.0 R EL022854
         K05L03V  C2005 06 06.31967 20 24 17.78 -11 10 51.6          19.0 R EL022854
         K05L03V  C2005 06 06.38902 20 24 25.56 -11 08 28.5          19.6 V EL022691
         K05L03V  C2005 06 06.40635 20 24 27.46 -11 07 52.8          20.4 V EL022691
         K05L03V  C2005 06 06.42368 20 24 29.43 -11 07 17.2          19.4 V EL022691
    
    Observer details:
    649 Powell Observatory, Louisburg.  Observer R. Fredrick.  0.75-m Newtonian
        reflector + CCD.
    691 Steward Observatory, Kitt Peak.  Observer M. Block.  0.9-m f/3 reflector
        + CCD.
    704 Lincoln Laboratory ETS, New Mexico.  Observers M. Blythe, F. Shelly,
        M. Bezpalko, R. Huber, L. Manguso, D. Torres, R. Kracke, M. McCleary,
        H. Stange, A. Milner.  Measurers J. Stuart, R. Sayer, J. Evans, J. Kommers.
        1.0-m f/2.15 reflector + CCD.
    854 Sabino Canyon Observatory, Tucson.  Observer J. E. McGaha.  0.36-m f/10.0
        Schmidt-Cassegrain + CCD.
    
    Orbital elements:
    2005 LV3
    Epoch 2005 May 30.0 TT = JDT 2453520.5                  MPC
    M 356.26874              (2000.0)            P               Q
    n   0.38521943     Peri.   18.28755     -0.03150436     +0.99327665
    a   1.8706703      Node   250.02625     -0.93118549     -0.06966515
    e   0.3455617      Incl.    6.80698     -0.36318186     +0.09245680
    P   2.56           H   20.0           G   0.15
    From 12 observations 2005 June 5-6.
    
    Ephemeris:
    2005 LV3                 a,e,i = 1.87, 0.35, 7                   q = 1.2242
    Date    TT    R. A. (2000) Decl.     Delta      r     Elong.  Phase     V
    2005 05 30    20 07.97   -15 20.6    0.310    1.227   127.6    40.9    19.5
    2005 06 09    20 29.48   -09 37.9    0.292    1.224   130.3    39.2    19.3
    2005 06 19    20 45.12   -04 01.5    0.282    1.228   133.6    36.8    19.2
    2005 06 29    20 54.83   +00 56.7    0.280    1.238   137.6    33.6    19.1
    2005 07 09    20 58.87   +04 49.1    0.285    1.255   142.4    29.6    19.1
    2005 07 19    20 58.44   +07 18.1    0.297    1.277   147.6    25.2    19.1
    2005 07 29    20 55.42   +08 20.6    0.318    1.305   152.3    21.2    19.1
    2005 08 08    20 51.85   +08 05.6    0.347    1.337   155.2    18.5    19.3
    2005 08 18    20 49.79   +06 54.1    0.388    1.374   155.1    18.1    19.6
    2005 08 28    20 50.46   +05 12.2    0.440    1.413   151.8    19.7    20.0
    2005 09 07    20 54.30   +03 22.0    0.503    1.455   146.6    22.4    20.4
    2005 09 17    21 01.30   +01 40.5    0.579    1.498   140.5    25.2    20.9
    2005 09 27    21 10.99   +00 17.3    0.667    1.543   134.1    27.8    21.3
    2005 10 07    21 22.89   -00 43.5    0.766    1.589   127.8    29.8    21.7
    
    Timothy B. Spahr             (C) Copyright 2005 MPC           M.P.E.C. 2005-L22
    

    Read MPEC 2005-L21 Read MPEC 2005-L23


    MPEC number:

    Enter an MPEC number in one of the following forms:

    • 1997-B01 (the full form)
    • J97B01 (the packed version of the full form)
    • B01 (the abbreviated form)